Regional Weather Roundup
Issued by NWS

Home | Current Version | Previous Version | Graphics & Text | Print | Product List | Glossary Off
Versions: 1 2 3 4 5 6 7 8 9 10 11 12 13 14 15 16 17 18 19 20 21 22 23 24 25 26 27 28 29 30 31 32 33 34 35 36 37 38 39 40 41 42 43 44 45 46 47 48 49 50

000
ASUS43 KTOP 061108
RWRKS

WEATHER ROUNDUP FOR KANSAS
NATIONAL WEATHER SERVICE GOODLAND KS
600 AM CDT FRI MAY 06 2016

NOTE:  "FAIR" INDICATES FEW OR NO CLOUDS BELOW 12,000 FEET WITH NO
SIGNIFICANT WEATHER AND/OR OBSTRUCTIONS TO VISIBILITY.

KSZ001>006-013>018-027>032-041>047-061200-
NORTHWEST KANSAS

CITY           SKY/WX    TMP DP  RH WIND       PRES   REMARKS
GOODLAND       CLOUDY    56  45  66 S21       29.98F
HAYS           CLOUDY    54  39  58 S5        30.03S
HILL CITY      CLOUDY    57  44  62 CALM      30.01F
RUSSELL        CLOUDY    53  45  74 S10       30.02S
$$

KSZ061>065-074>080-084>089-061200-
SOUTHWEST KANSAS

CITY           SKY/WX    TMP DP  RH WIND       PRES   REMARKS
DODGE CITY     CLOUDY    55  42  61 SE14      30.04S
ELKHART          N/A     48  44  86 S7          N/A
GARDEN CITY    CLOUDY    53  45  74 S12       30.01F
GREAT BEND     CLOUDY    48  39  71 S7        30.04S
LIBERAL        CLEAR     54  45  71 SE10      30.03S
PRATT          CLOUDY    48  42  79 S7        30.05S
$$

KSZ066>073-081>083-090>101-061200-
SOUTHEAST KANSAS

CITY           SKY/WX    TMP DP  RH WIND       PRES   REMARKS
CHANUTE        CLEAR     48  45  89 E6        30.07R
COFFEYVILLE    CLEAR     48  46  93 E3        30.07S
HUTCHINSON     CLOUDY    46  44  93 CALM      30.06S
MEDICINE LODGE   N/A     48  45  89 NE3       30.05S
NEWTON         CLEAR     52  39  62 S6        30.08S
PARSONS        CLEAR     46  45  96 CALM      30.08R
WICHITA INTL   CLEAR     50  43  77 CALM      30.05S
WICHITA JABRA  CLEAR     53  44  71 S6        30.05S
WICHITA MCCONL CLEAR     55  44  67 S5        30.06R
WINFIELD       CLEAR     51  45  79 E3        30.32F
$$

KSZ007>012-019>026-033>040-048>060-102>105-061200-
NORTHEAST KANSAS

CITY           SKY/WX    TMP DP  RH WIND       PRES   REMARKS
CONCORDIA      CLEAR     55  42  61 SW10      30.02S
EMPORIA        CLEAR     48  45  89 SE5       30.06R
LAWRENCE       CLEAR     44  43  96 CALM      30.06S
MANHATTAN      CLEAR     46  42  86 CALM      30.04S
MARYSVILLE     CLEAR     46  45  93 S6        30.02F
OLATHE IND     CLEAR     48  43  82 S6        30.07S
OLATHE EXE     CLEAR     50  41  71 S3        30.07R
SALINA         CLEAR     52  45  77 SW8       30.04S
TOPEKA BILLARD CLEAR     50  47  89 CALM      30.05S
TOPEKA FORBES  CLEAR     48  44  86 CALM      30.05S
$$



USA.gov is the U.S. government's official web portal to all federal, state and local government web resources and services.